Crosby, ND

7:35 AM CST on December 09, 2016 (GMT -0600)
Crosby

Weather History for KD50 - April, 2012

Change the Weather History Date:

Friday, April 27, 2012

  Actual Average (KISN) Record (KISN)
Temperature  
Mean Temperature 40 °F -  
Max Temperature 46 °F 57 °F 88 °F (1910)
Min Temperature 35 °F 33 °F 10 °F (1907)
Degree Days  
Heating Degree Days 24    
Moisture  
Dew Point 35 °F    
Average Humidity 84    
Maximum Humidity 100    
Minimum Humidity 37    
Precipitation  
Precipitation 0.37 in - - ()
Sea Level Pressure  
Sea Level Pressure 29.80 in    
Wind  
Wind Speed 27 mph (ESE)    
Max Wind Speed 33 mph    
Max Gust Speed 45 mph    
Visibility 8 miles    
Events Rain , Snow , Thunderstorm    
Averages and records for this station are not official NWS values.
T = Trace of Precipitation, MM = Missing Value Source: NWS Daily Summary

Daily Weather History Graph

Daily Weather History Graph

Search for Another Location

Airport or City:

Trip Planner

Search our weather history database for the weather conditions in past years. The results will help you decide how hot, cold, wet, or windy it might be!

Date:

Astronomy

Apr. 27, 2012 Rise Set
Actual Time 6:38 AM CDT 9:03 PM CDT
Civil Twilight 6:03 AM CDT 9:39 PM CDT
Nautical Twilight 5:19 AM CDT 10:23 PM CDT
Astronomical Twilight 4:28 AM CDT 11:14 PM CDT
Moon 11:11 AM CDT (4/27) 2:00 AM CDT (4/27)
Length of Visible Light 15h 35m
Length of Day
14h 25m
Waxing Crescent, 33% of the Moon is Illuminated
Apr 27
Waxing Crescent
Apr 29
First Quarter
May 5
Full
May 12
Last Quarter
May 20
New

Hourly Weather History & Observations

Time (CDT) Temp. Windchill Dew Point Humidity Pressure Visibility Wind Dir Wind Speed Gust Speed Precip Events Conditions
12:15 AM 46.4 °F 38.1 °F 21.2 °F 37% 29.87 in 10.0 mi ESE 24.2 mph 33.4 mph N/A   Unknown
12:35 AM 46.4 °F 37.5 °F 21.2 °F 37% 29.86 in 10.0 mi ESE 27.6 mph 34.5 mph N/A   Unknown
12:55 AM 44.6 °F 35.5 °F 23.0 °F 43% 29.86 in 10.0 mi ESE 25.3 mph 32.2 mph N/A   Unknown
1:15 AM 44.6 °F 36.1 °F 24.8 °F 46% 29.86 in 10.0 mi East 21.9 mph 29.9 mph N/A   Unknown
1:35 AM 44.6 °F 35.7 °F 26.6 °F 49% 29.85 in 10.0 mi East 24.2 mph 27.6 mph N/A   Unknown
1:55 AM 44.6 °F 35.3 °F 24.8 °F 46% 29.84 in 10.0 mi East 26.5 mph 34.5 mph N/A   Unknown
2:15 AM 44.6 °F 35.7 °F 24.8 °F 46% 29.84 in 10.0 mi East 24.2 mph 34.5 mph N/A   Unknown
2:35 AM 44.6 °F 35.3 °F 26.6 °F 49% 29.84 in 10.0 mi ESE 26.5 mph 29.9 mph N/A   Unknown
2:55 AM 44.6 °F 34.6 °F 28.4 °F 53% 29.82 in 9.0 mi ESE 31.1 mph 38.0 mph N/A   Unknown
3:15 AM 44.6 °F 34.6 °F 28.4 °F 53% 29.81 in 10.0 mi ESE 31.1 mph 40.3 mph N/A   Unknown
3:35 AM 44.6 °F 34.7 °F 28.4 °F 53% 29.80 in 10.0 mi ESE 29.9 mph 38.0 mph N/A   Unknown
3:55 AM 42.8 °F 32.1 °F 28.4 °F 57% 29.80 in 10.0 mi ESE 31.1 mph 41.4 mph N/A   Unknown
4:15 AM 41.0 °F 30.2 °F 30.2 °F 65% 29.79 in 10.0 mi ESE 27.6 mph 41.4 mph N/A   Unknown
4:35 AM 41.0 °F 31.4 °F 32.0 °F 70% 29.80 in 10.0 mi ESE 21.9 mph 35.7 mph N/A Rain Light Rain
4:55 AM 39.2 °F 29.6 °F 32.0 °F 75% 29.81 in 10.0 mi East 19.6 mph 29.9 mph N/A   Unknown
5:15 AM 39.2 °F 28.5 °F 35.6 °F 87% 29.79 in 5.0 mi ESE 24.2 mph 31.1 mph 0.03 in Thunderstorm Thunderstorm
5:35 AM 39.2 °F 29.3 °F 35.6 °F 87% 29.80 in 10.0 mi ESE 20.7 mph 31.1 mph 0.04 in   Unknown
5:55 AM 39.2 °F 28.0 °F 35.6 °F 87% 29.78 in 10.0 mi ESE 26.5 mph 34.5 mph 0.04 in   Unknown
6:15 AM 39.2 °F 27.8 °F 35.6 °F 87% 29.77 in 10.0 mi ESE 27.6 mph 35.7 mph N/A   Unknown
6:35 AM 39.2 °F 27.6 °F 37.4 °F 93% 29.76 in 10.0 mi ESE 28.8 mph 39.1 mph N/A   Unknown
6:55 AM 39.2 °F 28.3 °F 37.4 °F 93% 29.77 in 10.0 mi ESE 25.3 mph 40.3 mph N/A   Unknown
7:15 AM 39.2 °F 27.4 °F 37.4 °F 93% 29.77 in 10.0 mi ESE 29.9 mph 40.3 mph N/A   Unknown
7:55 AM 39.2 °F 26.8 °F 37.4 °F 93% 29.75 in 10.0 mi ESE 33.4 mph 42.6 mph N/A   Unknown
8:15 AM 39.2 °F 27.0 °F 37.4 °F 93% 29.75 in 10.0 mi ESE 32.2 mph 42.6 mph N/A   Unknown
8:35 AM 39.2 °F 27.4 °F 37.4 °F 93% 29.75 in 10.0 mi ESE 29.9 mph 39.1 mph N/A   Unknown
8:55 AM 39.2 °F 27.6 °F 37.4 °F 93% 29.75 in 10.0 mi East 28.8 mph 36.8 mph N/A   Unknown
9:15 AM 39.2 °F 26.8 °F 37.4 °F 93% 29.74 in 10.0 mi East 33.4 mph 40.3 mph N/A   Unknown
9:35 AM 39.2 °F 27.6 °F 37.4 °F 93% 29.74 in 10.0 mi East 28.8 mph 38.0 mph N/A   Unknown
9:55 AM 39.2 °F 28.0 °F 37.4 °F 93% 29.75 in 10.0 mi East 26.5 mph 35.7 mph N/A   Unknown
10:15 AM 39.2 °F 27.2 °F 37.4 °F 93% 29.75 in 10.0 mi East 31.1 mph 39.1 mph N/A   Unknown
10:35 AM 39.2 °F 28.3 °F 37.4 °F 93% 29.75 in 5.0 mi East 25.3 mph 33.4 mph N/A Rain Light Rain
10:55 AM 39.2 °F 28.3 °F 39.2 °F 100% 29.75 in 4.0 mi East 25.3 mph 31.1 mph 0.01 in   Mist
11:15 AM 39.2 °F 29.0 °F 39.2 °F 100% 29.76 in 5.0 mi East 21.9 mph 33.4 mph N/A Rain Light Rain
11:35 AM 41.0 °F 30.5 °F 39.2 °F 93% 29.75 in 10.0 mi ESE 26.5 mph 33.4 mph N/A Rain Light Rain
11:55 AM 41.0 °F 30.2 °F 39.2 °F 93% 29.75 in 10.0 mi ESE 27.6 mph 34.5 mph N/A   Unknown
12:15 PM 41.0 °F 30.7 °F 39.2 °F 93% 29.75 in 7.0 mi ESE 25.3 mph 34.5 mph N/A   Unknown
12:35 PM 41.0 °F 31.4 °F 39.2 °F 93% 29.76 in 7.0 mi ESE 21.9 mph 29.9 mph N/A Rain Light Rain
12:55 PM 41.0 °F 29.8 °F 39.2 °F 93% 29.76 in 10.0 mi ESE 29.9 mph 36.8 mph N/A Rain Light Rain
1:15 PM 41.0 °F 29.7 °F 41.0 °F 100% 29.75 in 5.0 mi ESE 31.1 mph 38.0 mph N/A   Mist
1:35 PM 41.0 °F 30.0 °F 41.0 °F 100% 29.75 in 1.5 mi ESE 28.8 mph 35.7 mph 0.09 in   Mist
1:55 PM 41.0 °F 29.8 °F 41.0 °F 100% 29.75 in 9.0 mi ESE 29.9 mph 39.1 mph 0.13 in   Unknown
2:15 PM 41.0 °F 30.7 °F 39.2 °F 93% 29.76 in 9.0 mi ESE 25.3 mph 40.3 mph N/A   Unknown
2:35 PM 41.0 °F 31.4 °F 39.2 °F 93% 29.76 in 4.0 mi ESE 21.9 mph 33.4 mph N/A   Mist
3:15 PM 41.0 °F 30.2 °F 39.2 °F 93% 29.77 in 5.0 mi ESE 27.6 mph 34.5 mph N/A Rain Light Rain
3:35 PM 41.0 °F 31.6 °F 39.2 °F 93% 29.77 in 5.0 mi ESE 20.7 mph 39.1 mph 0.01 in   Mist
3:55 PM 41.0 °F 30.7 °F 39.2 °F 93% 29.77 in 10.0 mi ESE 25.3 mph 41.4 mph 0.01 in   Unknown
4:15 PM 41.0 °F 29.5 °F 37.4 °F 87% 29.77 in 10.0 mi ESE 32.2 mph 44.9 mph N/A   Unknown
4:35 PM 41.0 °F 30.2 °F 37.4 °F 87% 29.78 in 10.0 mi ESE 27.6 mph 41.4 mph N/A   Unknown
4:55 PM 39.2 °F 29.8 °F 37.4 °F 93% 29.80 in 6.0 mi ESE 18.4 mph 38.0 mph N/A   Mist
5:15 PM 39.2 °F 28.3 °F 37.4 °F 93% 29.80 in 5.0 mi ESE 25.3 mph 32.2 mph N/A Rain Light Rain
5:35 PM 39.2 °F 27.2 °F 37.4 °F 93% 29.80 in 5.0 mi ESE 31.1 mph 40.3 mph N/A   Unknown
5:55 PM 39.2 °F 27.6 °F 37.4 °F 93% 29.80 in 3.0 mi ESE 28.8 mph 38.0 mph 0.04 in   Mist
6:15 PM 39.2 °F 27.6 °F 37.4 °F 93% 29.80 in 3.0 mi ESE 28.8 mph 38.0 mph 0.02 in   Mist
6:55 PM 39.2 °F 27.0 °F 37.4 °F 93% 29.80 in 5.0 mi ESE 32.2 mph 43.7 mph 0.08 in   Mist
7:15 PM 39.2 °F 28.3 °F 37.4 °F 93% 29.81 in 3.0 mi ESE 25.3 mph 36.8 mph 0.02 in   Mist
7:35 PM 39.2 °F 28.0 °F 37.4 °F 93% 29.81 in 5.0 mi ESE 26.5 mph 39.1 mph 0.04 in   Mist
7:55 PM 37.4 °F 24.4 °F 35.6 °F 93% 29.82 in 7.0 mi ESE 33.4 mph 38.0 mph 0.04 in Snow Light Snow
8:15 PM 37.4 °F 25.4 °F 35.6 °F 93% 29.82 in 6.0 mi ESE 27.6 mph 33.4 mph N/A Snow Light Snow
8:35 PM 37.4 °F 25.2 °F 35.6 °F 93% 29.83 in 7.0 mi ESE 28.8 mph 33.4 mph N/A Rain Light Rain
8:55 PM 37.4 °F 26.4 °F 35.6 °F 93% 29.84 in 5.0 mi ESE 23.0 mph 31.1 mph 0.01 in   Unknown
9:15 PM 35.6 °F 23.4 °F 35.6 °F 100% 29.84 in 7.0 mi ESE 25.3 mph 29.9 mph N/A   Unknown
9:35 PM 37.4 °F 26.1 °F 35.6 °F 93% 29.84 in 7.0 mi ESE 24.2 mph 33.4 mph 0.01 in Snow Light Snow
9:55 PM 37.4 °F 25.0 °F 35.6 °F 93% 29.85 in 8.0 mi ESE 29.9 mph 38.0 mph 0.01 in Snow Light Snow
10:15 PM 37.4 °F 25.2 °F 35.6 °F 93% 29.85 in 10.0 mi ESE 28.8 mph 36.8 mph N/A   Unknown
10:35 PM 37.4 °F 24.8 °F 35.6 °F 93% 29.85 in 10.0 mi ESE 31.1 mph 36.8 mph N/A   Unknown
10:55 PM 37.4 °F 25.0 °F 35.6 °F 93% 29.85 in 10.0 mi ESE 29.9 mph 38.0 mph N/A   Unknown
11:15 PM 37.4 °F 25.0 °F 35.6 °F 93% 29.85 in 10.0 mi ESE 29.9 mph 35.7 mph N/A   Unknown
11:35 PM 37.4 °F 26.1 °F 35.6 °F 93% 29.85 in 10.0 mi ESE 24.2 mph 34.5 mph N/A   Unknown
11:55 PM 39.2 °F 28.3 °F 35.6 °F 87% 29.86 in 10.0 mi ESE 25.3 mph 34.5 mph N/A   Unknown